Location: Newark
(55.7167°N, 12.5667°E)
Time: 14:27:16
(UTC+00:00)

N. Korean satellite - Pass Details

Date: 18 December 2019
Orbit: 454 x 507 km, 97.2° (Epoch: 22 January)

Event Time Altitude Azimuth Distance (km) Brightness Sun altitude
Rises 04:40:36 0° 19° (NNE) 2,535 10.3 -22.7°
Reaches altitude 10° 04:42:48 10° 29° (NNE) 1,643 9.5 -22.3°
Maximum altitude 04:46:04 35° 97° (E) 776 8.1 -21.9°
Drops below altitude 10° 04:49:15 10° 165° (SSE) 1,607 9.5 -21.5°
Sets 04:51:24 0° 174° (S) 2,471 10.4 -21.2°
